Powrót do katalogu

COSMOS 1247 DEB

LostHEO
NORAD 28270·DEBRIS·🇷🇺 Russia

Wystrzelony Feb 19, 1981 z Plesetsk Cosmodrome

Loading…

Następne Przeloty (najbliższe 24 godziny)

TLE

NieaktualneSource: Space-Track

Epoka: Jun 15, 2026, 11:48 UTC

1 28270U 81016L   26166.49216503 -.00000830  00000-0  00000-0 0  9998
2 28270  69.1287 359.1270 6238986 340.9821   3.4570  2.02474798186074

Śledź COSMOS 1247 DEB w czasie rzeczywistym z AllMySat

Download on the App Store